Time,TemperatureF,DewpointF,PressureIn,WindDirection,WindDirectionDegrees,WindSpeedMPH,WindSpeedGustMPH,Humidity,HourlyPrecipIn,Conditions,Clouds,dailyrainin,SolarRadiationWatts/m^2,SoftwareType,DateUTC
2013-07-16 00:01:00,53.0,51.0,-100.00,North,352,2.0,5.0,93,-99.99,,,0.00,0.000000,,2013-07-16 07:01:00,
2013-07-16 00:11:00,53.0,51.0,-100.00,North,352,2.0,5.0,93,-99.99,,,0.00,0.000000,,2013-07-16 07:11:00,
2013-07-16 00:43:00,53.0,51.0,-100.00,NNW,348,3.0,6.0,94,-99.99,,,0.00,0.000000,,2013-07-16 07:43:00,
2013-07-16 00:52:00,53.0,51.0,-100.00,NNW,348,3.0,6.0,94,-99.99,,,0.00,0.000000,,2013-07-16 07:52:00,
2013-07-16 01:01:00,53.0,51.0,-100.00,NNW,348,3.0,6.0,94,-99.99,,,0.00,0.000000,,2013-07-16 08:01:00,
2013-07-16 01:11:00,53.0,51.0,-100.00,NNW,348,3.0,6.0,94,-99.99,,,0.00,0.000000,,2013-07-16 08:11:00,
2013-07-16 01:43:00,52.0,50.0,-100.00,North,358,1.0,4.0,95,-99.99,,,0.00,0.000000,,2013-07-16 08:43:00,
2013-07-16 01:52:00,52.0,50.0,-100.00,North,358,1.0,4.0,95,-99.99,,,0.00,0.000000,,2013-07-16 08:52:00,
2013-07-16 02:01:00,52.0,50.0,-100.00,North,358,1.0,4.0,95,-99.99,,,0.00,0.000000,,2013-07-16 09:01:00,
2013-07-16 02:12:00,52.0,50.0,-100.00,North,358,1.0,4.0,95,-99.99,,,0.00,0.000000,,2013-07-16 09:12:00,
2013-07-16 02:42:00,50.0,49.0,-100.00,West,262,1.0,2.0,96,-99.99,,,0.00,0.000000,,2013-07-16 09:42:00,
2013-07-16 02:52:00,50.0,49.0,-100.00,West,262,1.0,2.0,96,-99.99,,,0.00,0.000000,,2013-07-16 09:52:00,
2013-07-16 03:01:00,50.0,49.0,-100.00,West,262,1.0,2.0,96,-99.99,,,0.00,0.000000,,2013-07-16 10:01:00,
2013-07-16 03:11:00,50.0,49.0,-100.00,West,262,1.0,2.0,96,-99.99,,,0.00,0.000000,,2013-07-16 10:11:00,
2013-07-16 03:43:00,49.0,49.0,-100.00,SSW,210,0.0,2.0,97,-99.99,,,0.00,0.000000,,2013-07-16 10:43:00,
2013-07-16 03:52:00,49.0,49.0,-100.00,SSW,210,0.0,2.0,97,-99.99,,,0.00,0.000000,,2013-07-16 10:52:00,
2013-07-16 04:01:00,49.0,49.0,-100.00,SSW,210,0.0,2.0,97,-99.99,,,0.00,0.000000,,2013-07-16 11:01:00,
2013-07-16 04:11:00,49.0,49.0,-100.00,SSW,210,0.0,2.0,97,-99.99,,,0.00,0.000000,,2013-07-16 11:11:00,
2013-07-16 04:42:00,50.0,49.0,-100.00,North,0,0.0,0.0,98,-99.99,,,0.00,0.000000,,2013-07-16 11:42:00,
2013-07-16 04:53:00,50.0,49.0,-100.00,North,0,0.0,0.0,98,-99.99,,,0.00,0.000000,,2013-07-16 11:53:00,
2013-07-16 05:01:00,50.0,49.0,-100.00,North,0,0.0,0.0,98,-99.99,,,0.00,0.000000,,2013-07-16 12:01:00,
2013-07-16 05:11:00,50.0,49.0,-100.00,North,0,0.0,0.0,98,-99.99,,,0.00,0.000000,,2013-07-16 12:11:00,
2013-07-16 05:43:00,48.0,48.0,-100.00,North,0,0.0,0.0,98,-99.99,,,0.00,0.000000,,2013-07-16 12:43:00,
2013-07-16 05:53:00,48.0,48.0,-100.00,North,0,0.0,0.0,98,-99.99,,,0.00,0.000000,,2013-07-16 12:53:00,
2013-07-16 06:01:00,48.0,48.0,-100.00,North,0,0.0,0.0,98,-99.99,,,0.00,0.000000,,2013-07-16 13:01:00,
2013-07-16 06:11:00,48.0,48.0,-100.00,North,0,0.0,0.0,98,-99.99,,,0.00,0.000000,,2013-07-16 13:11:00,
2013-07-16 06:42:00,49.0,49.0,-100.00,WNW,302,0.0,2.0,99,-99.99,,,0.00,4.420000,,2013-07-16 13:42:00,
2013-07-16 06:52:00,49.0,49.0,-100.00,WNW,302,0.0,2.0,99,-99.99,,,0.00,4.420000,,2013-07-16 13:52:00,
2013-07-16 07:01:00,49.0,49.0,-100.00,WNW,302,0.0,2.0,99,-99.99,,,0.00,4.420000,,2013-07-16 14:01:00,
2013-07-16 07:11:00,49.0,49.0,-100.00,WNW,302,0.0,2.0,99,-99.99,,,0.00,4.420000,,2013-07-16 14:11:00,
2013-07-16 07:42:00,51.0,51.0,-100.00,SSW,198,0.0,1.0,99,-99.99,,,0.00,47.880001,,2013-07-16 14:42:00,
2013-07-16 07:52:00,51.0,51.0,-100.00,SSW,198,0.0,1.0,99,-99.99,,,0.00,47.880001,,2013-07-16 14:52:00,
2013-07-16 08:01:00,51.0,51.0,-100.00,SSW,198,0.0,1.0,99,-99.99,,,0.00,47.880001,,2013-07-16 15:01:00,
2013-07-16 08:11:00,51.0,51.0,-100.00,SSW,198,0.0,1.0,99,-99.99,,,0.00,47.880001,,2013-07-16 15:11:00,
2013-07-16 08:43:00,54.0,54.0,-100.00,South,183,1.0,3.0,100,-99.99,,,0.00,149.229996,,2013-07-16 15:43:00,
2013-07-16 08:53:00,54.0,54.0,-100.00,South,183,1.0,3.0,100,-99.99,,,0.00,149.229996,,2013-07-16 15:53:00,
2013-07-16 09:01:00,54.0,54.0,-100.00,South,183,1.0,3.0,100,-99.99,,,0.00,149.229996,,2013-07-16 16:01:00,
2013-07-16 09:11:00,54.0,54.0,-100.00,South,183,1.0,3.0,100,-99.99,,,0.00,149.229996,,2013-07-16 16:11:00,
2013-07-16 09:43:00,55.0,55.0,-100.00,WSW,252,1.0,5.0,99,-99.99,,,0.00,179.910004,,2013-07-16 16:43:00,
2013-07-16 09:52:00,55.0,55.0,-100.00,WSW,252,1.0,5.0,99,-99.99,,,0.00,179.910004,,2013-07-16 16:52:00,
2013-07-16 10:02:00,55.0,55.0,-100.00,WSW,252,1.0,5.0,99,-99.99,,,0.00,179.910004,,2013-07-16 17:02:00,
2013-07-16 10:12:00,55.0,55.0,-100.00,WSW,252,1.0,5.0,99,-99.99,,,0.00,179.910004,,2013-07-16 17:12:00,
2013-07-16 10:43:00,53.0,53.0,-100.00,WSW,251,3.0,8.0,97,-99.99,,,0.00,248.710007,,2013-07-16 17:43:00,
2013-07-16 10:53:00,53.0,53.0,-100.00,WSW,251,3.0,8.0,97,-99.99,,,0.00,248.710007,,2013-07-16 17:53:00,
2013-07-16 11:01:00,53.0,53.0,-100.00,WSW,251,3.0,8.0,97,-99.99,,,0.00,248.710007,,2013-07-16 18:01:00,
2013-07-16 11:11:00,53.0,53.0,-100.00,WSW,251,3.0,8.0,97,-99.99,,,0.00,248.710007,,2013-07-16 18:11:00,
2013-07-16 11:43:00,53.0,52.0,-100.00,SSW,209,4.0,9.0,97,-99.99,,,0.00,274.510010,,2013-07-16 18:43:00,
2013-07-16 11:52:00,53.0,52.0,-100.00,SSW,209,4.0,9.0,97,-99.99,,,0.00,274.510010,,2013-07-16 18:52:00,
2013-07-16 12:01:00,53.0,52.0,-100.00,SSW,209,4.0,9.0,97,-99.99,,,0.00,274.510010,,2013-07-16 19:01:00,
2013-07-16 12:11:00,53.0,52.0,-100.00,SSW,209,4.0,9.0,97,-99.99,,,0.00,274.510010,,2013-07-16 19:11:00,
2013-07-16 12:43:00,53.0,53.0,-100.00,SSW,213,3.0,10.0,97,-99.99,,,0.00,326.350006,,2013-07-16 19:43:00,
2013-07-16 12:52:00,53.0,53.0,-100.00,SSW,213,3.0,10.0,97,-99.99,,,0.00,326.350006,,2013-07-16 19:52:00,
2013-07-16 13:03:00,53.0,53.0,-100.00,SSW,213,3.0,10.0,97,-99.99,,,0.00,326.350006,,2013-07-16 20:03:00,
2013-07-16 13:11:00,53.0,53.0,-100.00,SSW,213,3.0,10.0,97,-99.99,,,0.00,326.350006,,2013-07-16 20:11:00,
2013-07-16 13:43:00,53.0,53.0,-100.00,SSW,204,3.0,11.0,97,-99.99,,,0.00,267.890015,,2013-07-16 20:43:00,
2013-07-16 13:52:00,53.0,53.0,-100.00,SSW,204,3.0,11.0,97,-99.99,,,0.00,267.890015,,2013-07-16 20:52:00,
2013-07-16 14:01:00,53.0,53.0,-100.00,SSW,204,3.0,11.0,97,-99.99,,,0.00,267.890015,,2013-07-16 21:01:00,
2013-07-16 14:11:00,53.0,53.0,-100.00,SSW,204,3.0,11.0,97,-99.99,,,0.00,267.890015,,2013-07-16 21:11:00,
2013-07-16 14:52:00,54.0,53.0,-100.00,SSW,212,4.0,16.0,97,-99.99,,,0.00,369.700012,,2013-07-16 21:52:00,
2013-07-16 15:01:00,54.0,53.0,-100.00,SSW,212,4.0,16.0,97,-99.99,,,0.00,369.700012,,2013-07-16 22:01:00,
2013-07-16 15:11:00,54.0,53.0,-100.00,SSW,212,4.0,16.0,97,-99.99,,,0.00,369.700012,,2013-07-16 22:11:00,
2013-07-16 15:43:00,55.0,53.0,-100.00,SSW,208,4.0,12.0,91,-99.99,,,0.00,417.000000,,2013-07-16 22:43:00,
2013-07-16 15:52:00,55.0,53.0,-100.00,SSW,208,4.0,12.0,91,-99.99,,,0.00,417.000000,,2013-07-16 22:52:00,
2013-07-16 16:01:00,55.0,53.0,-100.00,SSW,208,4.0,12.0,91,-99.99,,,0.00,417.000000,,2013-07-16 23:01:00,
2013-07-16 16:11:00,55.0,53.0,-100.00,SSW,208,4.0,12.0,91,-99.99,,,0.00,417.000000,,2013-07-16 23:11:00,
2013-07-16 16:42:00,55.0,52.0,-100.00,SW,218,5.0,13.0,89,-99.99,,,0.00,311.700012,,2013-07-16 23:42:00,
2013-07-16 16:52:00,55.0,52.0,-100.00,SW,218,5.0,13.0,89,-99.99,,,0.00,311.700012,,2013-07-16 23:52:00,
2013-07-16 17:01:00,55.0,52.0,-100.00,SW,218,5.0,13.0,89,-99.99,,,0.00,311.700012,,2013-07-17 00:01:00,
2013-07-16 17:11:00,55.0,52.0,-100.00,SW,218,5.0,13.0,89,-99.99,,,0.00,311.700012,,2013-07-17 00:11:00,
2013-07-16 18:42:00,54.0,51.0,-100.00,SSW,207,4.0,11.0,89,-99.99,,,0.00,156.779999,,2013-07-17 01:42:00,
2013-07-16 18:53:00,54.0,51.0,-100.00,SSW,207,4.0,11.0,89,-99.99,,,0.00,156.779999,,2013-07-17 01:53:00,
2013-07-16 19:01:00,54.0,51.0,-100.00,SSW,207,4.0,11.0,89,-99.99,,,0.00,156.779999,,2013-07-17 02:01:00,
2013-07-16 19:11:00,54.0,51.0,-100.00,SSW,207,4.0,11.0,89,-99.99,,,0.00,156.779999,,2013-07-17 02:11:00,
2013-07-16 19:43:00,54.0,51.0,-100.00,SSW,213,3.0,9.0,90,-99.99,,,0.00,65.080002,,2013-07-17 02:43:00,
2013-07-16 19:53:00,54.0,51.0,-100.00,SSW,213,3.0,9.0,90,-99.99,,,0.00,65.080002,,2013-07-17 02:53:00,
2013-07-16 20:01:00,54.0,51.0,-100.00,SSW,213,3.0,9.0,90,-99.99,,,0.00,65.080002,,2013-07-17 03:01:00,
2013-07-16 20:11:00,54.0,51.0,-100.00,SSW,213,3.0,9.0,90,-99.99,,,0.00,65.080002,,2013-07-17 03:11:00,
2013-07-16 20:43:00,53.0,51.0,-100.00,SSW,204,3.0,7.0,92,-99.99,,,0.00,13.600000,,2013-07-17 03:43:00,
2013-07-16 20:53:00,53.0,51.0,-100.00,SSW,204,3.0,7.0,92,-99.99,,,0.00,13.600000,,2013-07-17 03:53:00,
2013-07-16 21:01:00,53.0,51.0,-100.00,SSW,204,3.0,7.0,92,-99.99,,,0.00,13.600000,,2013-07-17 04:01:00,
2013-07-16 21:11:00,53.0,51.0,-100.00,SSW,204,3.0,7.0,92,-99.99,,,0.00,13.600000,,2013-07-17 04:11:00,
2013-07-16 21:43:00,53.0,51.0,-100.00,SSW,203,4.0,8.0,93,-99.99,,,0.00,0.350000,,2013-07-17 04:43:00,
2013-07-16 21:53:00,53.0,51.0,-100.00,SSW,203,4.0,8.0,93,-99.99,,,0.00,0.350000,,2013-07-17 04:53:00,
2013-07-16 22:01:00,53.0,51.0,-100.00,SSW,203,4.0,8.0,93,-99.99,,,0.00,0.350000,,2013-07-17 05:01:00,
2013-07-16 22:11:00,53.0,51.0,-100.00,SSW,203,4.0,8.0,93,-99.99,,,0.00,0.350000,,2013-07-17 05:11:00,
2013-07-16 22:43:00,54.0,52.0,-100.00,SSW,202,2.0,6.0,94,-99.99,,,0.00,0.000000,,2013-07-17 05:43:00,
2013-07-16 22:52:00,54.0,52.0,-100.00,SSW,202,2.0,6.0,94,-99.99,,,0.00,0.000000,,2013-07-17 05:52:00,
2013-07-16 23:01:00,54.0,52.0,-100.00,SSW,202,2.0,6.0,94,-99.99,,,0.00,0.000000,,2013-07-17 06:01:00,
2013-07-16 23:11:00,54.0,52.0,-100.00,SSW,202,2.0,6.0,94,-99.99,,,0.00,0.000000,,2013-07-17 06:11:00,
2013-07-16 23:43:00,53.0,52.0,-100.00,SSW,199,3.0,8.0,94,-99.99,,,0.00,0.000000,,2013-07-17 06:43:00,
2013-07-16 23:52:00,53.0,52.0,-100.00,SSW,199,3.0,8.0,94,-99.99,,,0.00,0.000000,,2013-07-17 06:52:00,